Weather reports worldwide

Advertisment
Le Talut, France (7207): temperature & dewpoint: 01.08.2020 02:00:00 - 07.08.2020 02:00:00 (CEST)Le Talut, France (7207): wind speed & gusts: 01.08.2020 02:00:00 - 07.08.2020 02:00:00 (CEST)Le Talut, France (7207): wind direction: 01.08.2020 02:00:00 - 07.08.2020 02:00:00 (CEST)Le Talut, France (7207): reduced air pressure: 01.08.2020 02:00:00 - 07.08.2020 02:00:00 (CEST)Le Talut, France (7207): visibility: 01.08.2020 02:00:00 - 07.08.2020 02:00:00 (CEST)Le Talut, France (7207): precipitation: 01.08.2020 02:00:00 - 07.08.2020 02:00:00 (CEST)
Date & Time tt [°C] td [°C] ff [km/h] ff [kn] fx [km/h] fx [kn] dd ppp [hPa] vv [km] rr [mm]
07.08.2020 02:00:00 21,9 9,4 28 15 36 19 NNE 1015,4 - 0,0
07.08.2020 01:00:00 21,3 3,0 24 13 31 17 N 1015,8 - 0,0
07.08.2020 00:00:00 21,0 6,1 20 11 28 15 N 1016,0 - 0,0
06.08.2020 23:00:00 20,2 10,3 19 11 26 14 N 1016,1 - 0,0
06.08.2020 22:00:00 20,4 14,1 17 9 23 12 N 1015,7 - 0,0
06.08.2020 21:00:00 24,7 11,6 10 5 15 8 NNW 1015,8 - 0,0
06.08.2020 20:00:00 26,7 10,0 11 6 14 8 NW 1015,7 22 0,0
06.08.2020 19:00:00 26,3 13,4 7 4 12 6 W 1016,0 - 0,0
06.08.2020 18:00:00 26,8 6,8 5 3 10 6 S 1016,3 - 0,0
06.08.2020 17:00:00 24,4 15,3 7 4 16 9 ESE 1016,7 - 0,0
06.08.2020 16:00:00 24,3 15,5 10 5 22 12 E 1016,8 - 0,0
06.08.2020 15:00:00 24,0 15,0 12 6 20 11 ESE 1017,1 - 0,0
06.08.2020 14:00:00 23,4 15,7 9 5 23 12 E 1017,2 - 0,0
06.08.2020 13:00:00 22,0 15,4 14 8 23 13 E 1017,2 - 0,0
06.08.2020 12:00:00 22,5 15,8 9 5 21 11 E 1017,2 - 0,0
06.08.2020 11:00:00 20,7 15,9 10 5 22 12 E 1017,2 20 0,0
06.08.2020 10:00:00 19,4 16,4 9 5 19 10 E 1017,3 - 0,0
06.08.2020 09:00:00 19,0 17,0 10 5 16 9 E 1017,2 - 0,0
06.08.2020 08:00:00 17,5 15,7 10 5 14 8 ENE 1016,7 8 0,0
06.08.2020 07:00:00 17,3 15,5 7 4 8 5 NE 1016,5 - 0,0
06.08.2020 06:00:00 17,5 15,7 2 1 4 2 NE 1016,5 - 0,0
06.08.2020 05:00:00 17,7 15,9 3 1 6 4 E 1016,5 - 0,2
06.08.2020 04:00:00 18,3 16,5 3 2 5 3 E 1016,6 - 0,0
06.08.2020 03:00:00 18,3 16,5 0 0 5 3 N 1016,7 - 0,0
06.08.2020 02:00:00 18,2 16,2 3 2 7 4 E 1016,7 - 0,0
06.08.2020 01:00:00 18,3 16,3 3 2 7 4 E 1016,8 - 0,0
06.08.2020 00:00:00 18,8 16,6 4 2 7 4 SE 1016,8 - 0,0
05.08.2020 23:00:00 19,5 16,9 6 3 9 5 S 1016,6 - 0,0
05.08.2020 22:00:00 19,8 16,8 6 3 10 5 S 1016,2 - 0,0
05.08.2020 21:00:00 20,8 17,0 8 4 12 6 SSW 1016,0 - 0,0
05.08.2020 20:00:00 21,6 17,0 11 6 15 8 SSW 1015,8 - 0,0
05.08.2020 19:00:00 22,1 17,2 13 7 17 9 SSW 1015,9 - 0,0
05.08.2020 18:00:00 22,2 17,1 16 9 22 12 SSW 1015,9 - 0,0
05.08.2020 17:00:00 22,6 17,3 15 8 22 12 S 1016,1 - 0,0
05.08.2020 16:00:00 23,0 17,2 16 8 23 13 S 1016,5 - 0,0
05.08.2020 15:00:00 22,3 16,8 17 9 25 13 S 1016,5 - 0,0
05.08.2020 14:00:00 21,9 16,8 19 11 23 12 SSW 1016,5 20 0,0
05.08.2020 13:00:00 22,3 17,0 13 7 18 10 S 1016,4 - 0,0
05.08.2020 12:00:00 22,1 17,2 8 5 17 9 S 1016,1 - 0,0
05.08.2020 11:00:00 21,6 17,0 8 4 26 14 S 1015,9 20 0,0
05.08.2020 10:00:00 19,9 16,3 15 8 22 12 S 1015,9 - 0,0
05.08.2020 09:00:00 19,6 15,9 14 8 18 10 S 1015,8 - 0,0
05.08.2020 08:00:00 19,4 15,3 11 6 14 8 S 1015,7 20 0,0
05.08.2020 07:00:00 18,9 14,8 8 4 20 11 SW 1015,8 - 0,0
05.08.2020 06:00:00 18,6 14,3 13 7 29 16 SSW 1015,8 - 0,0
05.08.2020 05:00:00 18,4 14,5 14 8 29 16 SW 1015,9 - 0,0
05.08.2020 04:00:00 17,9 14,0 12 7 19 11 SSW 1016,4 - 0,0
05.08.2020 03:00:00 17,5 14,0 13 7 17 9 SSW 1016,8 - 0,0
05.08.2020 02:00:00 16,5 12,8 7 4 11 6 S 1017,3 - 0,0
05.08.2020 01:00:00 16,1 12,1 6 3 9 5 SE 1017,6 - 0,0
05.08.2020 00:00:00 15,4 11,4 4 2 8 4 ESE 1018,0 - 0,0
04.08.2020 23:00:00 16,2 11,4 4 2 8 5 E 1017,9 - 0,0
04.08.2020 22:00:00 17,3 11,8 3 2 8 4 SE 1018,2 - 0,0
04.08.2020 21:00:00 18,9 12,2 6 3 10 5 SSW 1018,2 - 0,0
04.08.2020 20:00:00 19,6 12,4 6 3 10 5 SW 1018,4 25 0,0
04.08.2020 19:00:00 19,9 12,4 6 4 13 7 SW 1018,6 - 0,0
04.08.2020 18:00:00 20,1 12,6 8 4 14 8 SW 1019,2 - 0,0
04.08.2020 17:00:00 20,2 12,9 9 5 15 8 SSW 1019,3 - 0,0
04.08.2020 16:00:00 20,2 12,4 8 4 15 8 SSW 1019,8 - 0,0
04.08.2020 15:00:00 20,4 12,9 9 5 16 9 S 1020,1 - 0,0
04.08.2020 14:00:00 20,1 13,3 9 5 16 8 S 1020,3 25 0,0
04.08.2020 13:00:00 19,7 12,7 11 6 17 9 SSE 1020,5 - 0,0
04.08.2020 12:00:00 19,1 12,8 10 6 18 10 SE 1020,4 - 0,0
04.08.2020 11:00:00 18,1 12,5 9 5 19 10 ESE 1020,2 25 0,0
04.08.2020 10:00:00 18,0 12,4 6 3 13 7 ESE 1020,3 - 0,0
04.08.2020 09:00:00 16,7 12,0 8 4 13 7 ENE 1020,1 - 0,0
04.08.2020 08:00:00 14,3 11,3 12 7 15 8 NNE 1020,1 - 0,0
04.08.2020 07:00:00 12,7 10,1 13 7 14 8 NNE 1019,9 - 0,0
04.08.2020 06:00:00 12,6 9,8 11 6 15 8 N 1019,7 - 0,0
04.08.2020 05:00:00 13,0 9,8 13 7 16 9 NNE 1019,8 - 0,0
04.08.2020 04:00:00 13,8 9,8 14 8 18 10 NE 1019,8 - 0,0
04.08.2020 03:00:00 13,9 10,1 14 8 21 12 NNE 1020,0 - 0,0
04.08.2020 02:00:00 14,3 10,5 13 7 19 10 NNE 1020,2 - 0,0
04.08.2020 01:00:00 14,9 10,9 11 6 21 11 N 1020,1 - 0,0
04.08.2020 00:00:00 16,3 11,9 15 8 28 15 N 1019,8 - 0,0
03.08.2020 23:00:00 17,9 13,0 20 11 36 19 NW 1019,1 - 0,0
03.08.2020 22:00:00 18,0 12,7 18 10 32 17 WNW 1018,8 - 0,0
03.08.2020 21:00:00 18,6 12,8 15 8 31 17 WNW 1018,7 - 0,0
03.08.2020 20:00:00 18,7 13,5 19 10 44 24 WNW 1018,6 - 0,0
03.08.2020 19:00:00 19,0 13,4 27 15 41 22 W 1018,5 - 0,0
03.08.2020 18:00:00 20,0 13,0 26 14 37 20 W 1018,6 - 0,0
03.08.2020 17:00:00 20,1 11,8 22 12 33 18 W 1018,4 25 0,0
03.08.2020 16:00:00 20,7 12,4 19 11 29 15 W 1018,7 - 0,0
03.08.2020 15:00:00 20,4 12,1 17 9 25 14 W 1019,2 - 0,0
03.08.2020 14:00:00 19,9 12,9 18 10 27 15 W 1019,4 25 0,0
03.08.2020 13:00:00 19,6 12,6 14 7 26 14 W 1019,6 - 0,0
03.08.2020 12:00:00 18,7 11,5 13 7 22 12 NW 1019,6 - 0,0
03.08.2020 11:00:00 17,6 12,5 13 7 23 13 NW 1019,5 20 0,0
03.08.2020 10:00:00 16,6 13,3 12 7 29 16 NNW 1019,5 - 0,6
03.08.2020 09:00:00 16,7 12,8 13 7 24 13 WNW 1019,0 - 0,0
03.08.2020 08:00:00 16,0 12,4 12 6 22 12 WNW 1018,8 20 0,0
03.08.2020 07:00:00 15,3 12,6 11 6 29 16 NW 1018,6 - 1,0
03.08.2020 06:00:00 16,0 13,3 13 7 34 19 NW 1018,7 - 0,0
03.08.2020 05:00:00 15,9 13,4 22 12 35 19 W 1018,6 - 1,0
03.08.2020 04:00:00 16,6 13,1 15 8 26 14 NNW 1019,1 - 0,0
03.08.2020 03:00:00 17,3 13,0 17 9 28 15 NW 1019,2 - 0,0
03.08.2020 02:00:00 17,3 13,2 14 8 28 15 WNW 1019,5 - 0,0
03.08.2020 01:00:00 17,3 13,4 16 8 28 15 WNW 1019,8 - 0,0
03.08.2020 00:00:00 17,6 13,5 14 8 28 15 WNW 1019,8 - 0,0
02.08.2020 23:00:00 17,4 13,1 18 10 34 18 WNW 1020,1 - 0,0
02.08.2020 22:00:00 17,6 13,1 16 8 34 19 W 1020,2 - 0,0
02.08.2020 21:00:00 18,0 13,5 17 9 33 18 W 1020,2 - 0,0
02.08.2020 20:00:00 18,5 13,4 19 10 41 22 W 1020,3 - 0,0
02.08.2020 19:00:00 18,6 13,5 23 13 42 23 W 1020,4 - 0,0
02.08.2020 18:00:00 19,2 13,4 26 14 40 22 W 1020,6 - 0,0
02.08.2020 17:00:00 20,1 13,3 23 12 39 21 W 1020,8 - 0,0
02.08.2020 16:00:00 20,6 13,3 21 12 37 20 W 1021,2 - 0,0
02.08.2020 15:00:00 20,4 13,1 23 12 35 19 W 1021,5 - 0,0
02.08.2020 14:00:00 20,5 12,5 18 10 27 14 W 1021,7 25 0,0
02.08.2020 13:00:00 20,6 12,3 16 8 23 12 W 1021,9 - 0,0
02.08.2020 12:00:00 18,7 12,2 8 5 16 8 SW 1022,2 - 0,0
02.08.2020 11:00:00 18,8 11,8 10 6 18 10 W 1022,2 20 0,0
02.08.2020 10:00:00 18,0 10,4 11 6 16 9 NNW 1022,3 - 0,0
02.08.2020 09:00:00 17,1 12,6 6 3 10 5 N 1022,1 - 0,0
02.08.2020 08:00:00 15,5 12,1 6 4 14 8 N 1021,9 20 0,0
02.08.2020 07:00:00 14,4 11,2 10 6 20 11 N 1021,6 - 0,0
02.08.2020 06:00:00 15,2 11,6 13 7 19 10 NW 1021,6 - 0,0
02.08.2020 05:00:00 14,5 11,1 10 6 18 10 N 1021,5 - 0,0
02.08.2020 04:00:00 14,8 11,8 11 6 18 10 N 1021,3 - 0,0
02.08.2020 03:00:00 15,4 12,2 12 7 23 12 N 1021,6 - 0,0
02.08.2020 02:00:00 16,2 12,4 16 9 38 20 NNW 1021,6 - 0,0
02.08.2020 01:00:00 17,3 13,0 26 14 38 21 NW 1021,5 - 0,0
02.08.2020 00:00:00 17,7 13,4 21 11 45 24 WNW 1021,4 - 0,0
01.08.2020 23:00:00 18,0 13,1 27 15 40 22 NW 1021,0 - 0,0
01.08.2020 22:00:00 17,7 13,8 21 11 40 22 W 1021,2 - 0,0
01.08.2020 21:00:00 17,9 13,6 25 13 48 26 W 1020,6 - 0,0
01.08.2020 20:00:00 19,0 13,8 28 15 56 30 W 1020,4 25 0,0
01.08.2020 19:00:00 19,4 14,4 29 16 54 29 W 1020,4 - 0,0
01.08.2020 18:00:00 20,1 14,7 26 14 46 25 W 1020,6 - 0,0
01.08.2020 17:00:00 20,3 14,0 26 14 44 24 W 1020,9 - 0,0
01.08.2020 16:00:00 20,4 14,5 26 14 39 21 W 1020,8 - 0,0
01.08.2020 15:00:00 21,0 14,9 21 12 40 22 W 1020,6 - 0,0
01.08.2020 14:00:00 20,8 14,9 20 11 31 17 W 1020,7 - 0,0
01.08.2020 13:00:00 21,2 15,3 16 9 30 16 W 1020,4 - 0,0
01.08.2020 12:00:00 20,8 15,8 17 9 27 15 W 1020,2 - 0,0
01.08.2020 11:00:00 20,1 15,9 16 9 26 14 W 1019,9 25 0,0
01.08.2020 10:00:00 19,5 15,8 11 6 19 11 W 1019,6 - 0,0
01.08.2020 09:00:00 18,7 15,4 8 4 19 11 WNW 1019,1 - 0,0
01.08.2020 08:00:00 18,0 15,3 12 6 26 14 WNW 1019,0 - 0,0
01.08.2020 07:00:00 17,7 15,3 11 6 23 13 WNW 1018,8 - 0,2
01.08.2020 06:00:00 17,5 15,3 13 7 29 16 WNW 1018,7 - 0,0
01.08.2020 05:00:00 17,7 15,7 14 7 28 15 WNW 1018,4 - 0,0
01.08.2020 04:00:00 17,8 16,1 12 6 26 14 W 1018,3 - 0,0
01.08.2020 03:00:00 18,2 16,7 12 6 26 14 W 1018,2 - 0,0
01.08.2020 02:00:00 18,3 16,8 15 8 29 16 W 1018,5 - 0,0

tt = temperature
td = dewpoint
ff = wind speed
fx = gusts
dd = wind direction
ppp = reduced air pressure
vv = visibility
rr = precipitation

Next stations